This is the latest recevied weather packets stored in our database for station/object KD0RIH. If no packets are shown the sender has not sent any weather packets the latest 10 day(s).
| Time | Temp. | Humidity | Pressure | Rain* | Wind** | Luminosity | Snow |
|---|---|---|---|---|---|---|---|
| 1777123467 | 12.22° C | 73% | 1012.8 hPa | 0 mm | - | 293 W/m² | - |
| 1777123161 | 12.78° C | 72% | 1012.8 hPa | 0 mm | - | 311 W/m² | - |
| 1777122859 | 12.22° C | 74% | 1012.8 hPa | 0 mm | - | 287 W/m² | - |
| 1777122555 | 11.67° C | 75% | 1013 hPa | 0 mm | - | 261 W/m² | - |
| 1777122251 | 11.67° C | 77% | 1012.8 hPa | 0 mm | - | 244 W/m² | - |
| 1777121947 | 11.67° C | 77% | 1013 hPa | 0 mm | - | 191 W/m² | - |
| 1777121644 | 11.67° C | 77% | 1013 hPa | 0 mm | - | 68 W/m² | - |
| 1777121340 | 11.67° C | 77% | 1013 hPa | 0 mm | - | 143 W/m² | - |
| 1777121036 | 11.67° C | 76% | 1012.8 hPa | 0 mm | - | 149 W/m² | - |
| 1777120732 | 11.11° C | 77% | 1012.8 hPa | 0 mm | - | 104 W/m² | - |
| 1777120429 | 11.11° C | 79% | 1013 hPa | 0 mm | - | 78 W/m² | - |
| 1777120124 | 10.56° C | 80% | 1012.9 hPa | 0 mm | - | 66 W/m² | - |
| 1777119820 | 10° C | 82% | 1013 hPa | 0 mm | - | 65 W/m² | - |
| 1777119516 | 10° C | 82% | 1013 hPa | 0 mm | - | 59 W/m² | - |
| 1777119212 | 10° C | 82% | 1012.8 hPa | 0 mm | - | 44 W/m² | - |
| 1777118911 | 9.44° C | 83% | 1013 hPa | 0 mm | - | 35 W/m² | - |
| 1777118608 | 9.44° C | 84% | 1013 hPa | 0 mm | - | 33 W/m² | - |
| 1777118308 | 8.89° C | 85% | 1012.9 hPa | 0 mm | - | 30 W/m² | - |
| 1777118005 | 8.89° C | 86% | 1012.8 hPa | 0 mm | - | 26 W/m² | - |
| 1777117702 | 8.89° C | 87% | 1012.9 hPa | 0 mm | - | 22 W/m² | - |
| 1777117400 | 8.33° C | 87% | 1012.7 hPa | 0 mm | - | 17 W/m² | - |
| 1777117095 | 8.89° C | 86% | 1012.8 hPa | 0 mm | - | 12 W/m² | - |
| 1777116791 | 8.89° C | 86% | 1012.8 hPa | 0 mm | - | 9 W/m² | - |
| 1777116486 | 8.33° C | 87% | 1012.5 hPa | 0 mm | - | 6 W/m² | - |
| 1777116183 | 8.33° C | 87% | 1012.5 hPa | 0 mm | - | 4 W/m² | - |
* Rain latest hour (hover to see other rain measurements)
** Current wind speed in m/s (hover to see current wind gust speed)